Location: Newark
(53.3333°N, 83.7500°E)
Time: 11:55:46
(UTC+00:00)

ISS - Visible Passes

Search period start: 28 November 2020 00:00
Search period end: 08 December 2020 00:00
Orbit: 418 x 420 km, 51.6° (Epoch: 28 November)

Date Brightness Start Highest point End Pass type
(mag) Time Alt. Az. Time Alt. Az. Time Alt. Az.
28 Nov -2.6 10:58:32 10° SW 11:01:39 35° SSE 11:04:45 10° E visible
28 Nov -3.6 12:34:51 10° W 12:38:04 65° SSW 12:38:04 65° SSW visible
29 Nov -3.5 11:47:23 10° WSW 11:50:43 61° S 11:52:25 26° E visible
29 Nov -1.2 13:24:04 10° W 13:25:23 21° W 13:25:23 21° W visible
30 Nov -3.2 10:59:56 10° WSW 11:03:13 53° SSE 11:06:32 10° E visible
30 Nov -3.5 12:36:32 10° W 12:39:44 62° SSW 12:39:44 62° SSW visible
01 Dec -3.6 11:49:01 10° W 11:52:22 66° S 11:54:06 26° ESE visible
01 Dec -1.1 13:25:47 10° W 13:27:04 20° W 13:27:04 20° W visible
02 Dec -3.4 11:01:29 10° W 11:04:51 66° S 11:08:12 10° E visible
02 Dec -3.0 12:38:13 10° W 12:41:29 47° SSW 12:41:29 47° SSW visible
03 Dec -3.3 11:50:39 10° W 11:53:58 56° SSW 11:55:57 22° ESE visible
03 Dec -0.9 13:27:40 10° W 13:28:55 17° WSW 13:28:55 17° WSW visible
04 Dec -3.3 11:03:05 10° W 11:06:26 63° S 11:09:47 10° ESE visible
04 Dec -2.2 12:39:57 10° W 12:42:56 29° SSW 12:43:28 28° S visible
05 Dec -2.5 11:52:17 10° W 11:55:28 38° SSW 11:58:09 13° SE visible
05 Dec -0.6 13:30:17 10° WSW 13:31:08 12° SW 13:31:08 12° SW visible
06 Dec -2.8 11:04:41 10° W 11:07:57 47° SSW 11:11:12 10° ESE visible
06 Dec -1.1 12:42:00 10° WSW 12:44:13 17° SW 12:45:59 12° S visible
07 Dec -1.4 11:54:05 10° W 11:56:47 22° SSW 11:59:29 10° SSE visible
